CZ-4C DEB, 43601

Orbit data source: Space-Track

CZ-4C DEB, 43601 is space debris in SSO originally from a launch on Tue, 09 Aug 2016 UTC launched from the Taiyaun Space Center, China (TSC). Debris objects in space refer to the collection of defunct objects orbiting the Earth. Examples of debris include non-operational satellites, rocket bodies, and fragments generated from explosions, collisions, or faulty payload assembly.

Loading next visibility...
Identifier
43601, 2016-049F
Orbit
SSO
Country
Flag of CNCN / PRC
Related business
Manufacturer
Unknown
Mission
Spacecraft
Bus & Motor
Unknown
Mass
Unknown
Launch date (UTC)
2016-08-09 (10 years ago)
Launch vehicle
Unknown
Launch site
Taiyaun Space Center, China (TSC)
Object type
Payload
Rocket body
Debris
Shape & HBR
Unknown shape, 0.1 m
Radar Cross Section
Small (<0.1 m²)

Expand to show TLE details & history
Last TLE update: 3 days ago

TLE from 3 days ago
0 CZ-4C DEB
1 43601U 16049F   26123.15623617  .00012405  00000-0  94774-3 0  9995
2 43601  98.3307 263.0936 0062965 339.5825  20.2880 15.00530189625890
Epoch: 2026-05-03T03:44Z
TLE epoch observation values (Epoch: 2026-05-03T03:44:58.805Z)
Latitude
-0.00007°
Longitude
-14.21524°
Altitude
527.314 km
Speed
7.622 km/s
True Right ascension
17h 32m 22s
True Declination
0° 00' 00"
Sunlit
Object was in full shadow at epoch
Visualization orbit readout
Latitude
Unknown
Longitude
Unknown
Altitude
Unknown
Speed
Unknown
Apparent Right ascension
Unknown
Apparent Declination
Unknown
Sunlit
N/A
Visualization observer readout
Local Sidereal Time
18:38:19
Azimuth
Unknown
Elevation
Unknown
Doppler factor
Unknown
Orbital elements
Apogee altitude
605.994 km
Perigee altitude
518.593 km
Semi-major axis
6,940.431 km
Eccentricity
0.0063
Inclination
98.3307°
RAAN
263.0936°
Arg. of periapsis
339.5825°
True anomaly
20.54004°
Mean anomaly
20.288°
Eccentric anomaly
20.41383°
Mean motion
3.75373 °/min
Orbital period
95.9 mins
BSTAR
0.00094774
Loading maneuver chart data...
Computing Atmospheric mass density...
Loading historical data...
Loading historical data...
Loading historical data...
Loading historical data...
Loading historical data...
Loading historical data...
Loading historical data...
Other satellites on launch #49 in the year 2016 (2016-08-09 UTC)

Documentation

Showing up to 5 results
|